Location: Boitzum
(52.1496°N, 9.6943°E)
Time: 09:12:22
(UTC+00:00)

NOAA 12 - Pass Details

Date: 13 January 2026
Orbit: 793 x 813 km, 98.6° (Epoch: 19 February)

Event Time Altitude Azimuth Distance (km) Brightness Sun altitude
Rises 05:29:15 0° 11° (N) 3,310 7.3 -16.9°
Reaches altitude 10° 05:31:41 10° 5° (N) 2,375 6.4 -16.5°
Maximum altitude 05:36:35 43° 296° (WNW) 1,115 4.4 -15.8°
Drops below altitude 10° 05:41:28 10° 226° (SW) 2,359 6.2 -15.1°
Sets 05:43:53 0° 220° (SW) 3,286 7.0 -14.7°
